Charleston Air Force Base-International Airport
KCHS : now visible

Airfield :











YOU CAN JOIN US ON...

 
LOGIN :

Register | Disclaimer

   EN    FR    IT 

 









Legend :    VFR   Marginal VFR   IFR   Intensive IFR   Very Intensive IFR
Visi :
Ceiling :
>= 8 km
>= 3000ft
5 to 8 km
1000 to 3000 ft
1500m to 5 km
500 to 1000 ft
800 to 1500m
200 to 500 ft
< 800m
< 200 ft
Symbols :   Thunderstorms  Fog  Heavy snow  Heavy precipitations  Wind > 20 kt






- Airport Elevation : 46 ft
- IATA code : CHS


KCHS - Charleston Air Force Base-International

CURRENT METAR :
  • 160756Z 02010KT 10SM FEW060 FEW250 15/11 A2981 RMK AO2 SLP095 T01500111

EXPIRED METARs :
  • 160656Z 28004KT 10SM FEW120 FEW250 16/14 A2980 RMK AO2 SLP091 T01560144

TAF KCHS
Valid from the 16 at 06:00 until the 17 at 06:00 UTC


160527Z 1606/1706 33008KT P6SM FEW250
FM161000 03009KT P6SM SCT250
FM161500 06007KT P6SM SCT250
FM162000 17007KT P6SM FEW250
FM170000 19003KT P6SM SCT250
KZJX FIR / North America



MET'MAP, your aeronautical weather chart ! - Copyright ORBIFLY December 2007 - Disclaimer

ORBIFLY MET'MAP TEAM :

Programming & Development : Alexandra Zaïnal
Concept & original design : Baudouin d'Aumeries
Assistance for programming : Marc-Olivier Méhu
Technical & hardware support : Manuel Goepfert

Contact : metmap@orbifly.com




SOURCES & CREDITS :

   NOAA       Earth
Advisory